Regional Weather Roundup
Issued by NWS

Home | Current Version | Previous Version | Graphics & Text | Print | Product List | Glossary Off
Versions: 1 2 3 4 5 6 7 8 9 10 11 12 13 14 15 16 17 18 19 20 21 22 23 24 25 26 27 28 29 30 31 32 33 34 35 36 37 38 39 40 41 42 43 44 45 46 47 48 49 50

000
ASUS43 KTOP 011859
RWRKS

WEATHER ROUNDUP FOR KANSAS
NATIONAL WEATHER SERVICE GOODLAND KS
100 PM CST SUN MAR 01 2015

NOTE:  "FAIR" INDICATES FEW OR NO CLOUDS BELOW 12,000 FEET WITH NO
SIGNIFICANT WEATHER AND/OR OBSTRUCTIONS TO VISIBILITY.

KSZ001>006-013>018-027>032-041>047-012000-
NORTHWEST KANSAS

CITY           SKY/WX    TMP DP  RH WIND       PRES   REMARKS
GOODLAND       PTSUNNY   31  17  56 VRB7G17   30.29R
HAYS           CLOUDY    28  14  54 N9        30.36F
HILL CITY      CLOUDY    30  19  63 NW7       30.36F
RUSSELL        PTSUNNY   31  20  63 N12       30.37R WCI  22
$$

KSZ061>065-074>080-084>089-012000-
SOUTHWEST KANSAS

CITY           SKY/WX    TMP DP  RH WIND       PRES   REMARKS
DODGE CITY     CLOUDY    28  20  71 N5        30.34S
ELKHART          N/A     29  22  75 N6          N/A
GARDEN CITY    CLOUDY    26  20  77 N5        30.32S
GREAT BEND     CLOUDY    30  19  64 N9        30.37F
LIBERAL        CLOUDY    28  21  74 N7        30.33F
$$

KSZ066>073-081>083-090>101-012000-
SOUTHEAST KANSAS

CITY           SKY/WX    TMP DP  RH WIND       PRES   REMARKS
CHANUTE        PTSUNNY   31  21  66 N6        30.40F
COFFEYVILLE    CLOUDY    33  23  66 N3        30.40F
HUTCHINSON     PTSUNNY   32  18  56 N9        30.38F
MEDICINE LODGE   N/A     32  20  61 N7        30.38F
NEWTON         PTSUNNY   28  18  64 N7        30.40F
PARSONS        CLOUDY    33  22  63 N8        30.41F
WICHITA INTL   PTSUNNY   29  20  69 N8        30.39F
WICHITA JABRA  CLOUDY    28  21  75 N8        30.39S
WINFIELD       MOSUNNY   31  23  72 NW7       30.41S
$$

KSZ007>012-019>026-033>040-048>060-102>105-012000-
NORTHEAST KANSAS

CITY           SKY/WX    TMP DP  RH WIND       PRES   REMARKS
CONCORDIA      MOSUNNY   32  22  66 MISG      30.38F
EMPORIA        MOSUNNY   29  19  66 NW7       30.39F
LAWRENCE       CLOUDY    32  22  66 VRB6      30.41F
MANHATTAN      PTSUNNY   33  20  58 W8        30.40F
OLATHE IND     FLURRIES  30  21  69 N8        30.40F
OLATHE EXE     PTSUNNY   31  20  63 NW8       30.39F
SALINA         CLOUDY    31  20  63 N5        30.41F
TOPEKA BILLARD CLOUDY    31  22  69 NW8       30.41F
TOPEKA FORBES  CLOUDY    34  22  61 N10       30.39F WCI  26
$$



USA.gov is the U.S. government's official web portal to all federal, state and local government web resources and services.